Flag for U.S.A. Weather past 2 weeks in Midway, Midway Atoll, U.S.A.

Now
83 °F

Clear.


Feels Like: 91 °F
Forecast: 80 / 85 °F
Wind: 9 mph from West

Location: Midway Island Naval Air Facility

Current Time: Oct 1, 2014 at 9:05:39 PM

Latest Report: Oct 1, 2014 at 7:56 PM


Visibility: 10 mi

Pressure: 30.71 "Hg

Humidity: 79%

Dew point: 76 °F

Location of MidwayLocation

Historic Weather in Midway — Graph

°F

Midway temperature yesterday

Maximum temperature yesterday: 87 °F (at 10:56 AM)
Minimum temperature yesterday: 73 °F (at 4:56 AM)
Average temperature yesterday: 80 °F

Past Weeks' High & Low Weather Summary

 TemperatureHumidityPressure
High91 °F (Sep 18, 11:56 AM)94% (Sep 21, 2:56 AM)31.00 "Hg (Sep 21, 2:56 AM)
Low73 °F (Sep 30, 4:56 AM)48% (Sep 30, 10:56 AM)28.05 "Hg (Sep 18, 10:56 PM)
Average83 °F73%30.24 "Hg
* Reported Sep 16 7:56 PM — Oct 1 7:56 PM, Midway, Weather by CustomWeather, © 2014

Note: Actual official high and low records may vary slightly from our data, if they occured in-between our weather recording intervals... More about our weather records

Advertising

Midway weather history for previous 24 hours

 ConditionsComfort  
Time TempWeatherWind HumidityBarometerVisibility
7:56 PM
Oct 1
83 °FClear.9 mph79%30.71 "Hg10 mi
6:56 PM83 °FPassing clouds.12 mph79%30.70 "Hg10 mi
5:56 PM85 °FSunny.10 mph77%30.69 "Hg10 mi
4:56 PM87 °FSunny.14 mph70%30.68 "Hg10 mi
3:56 PM88 °FPartly sunny.14 mph67%30.68 "Hg10 mi
2:56 PM89 °FScattered clouds.14 mph66%30.68 "Hg10 mi
1:56 PM91 °FPassing clouds.16 mph58%30.70 "Hg10 mi
12:56 PM90 °FSunny.14 mph61%30.72 "Hg10 mi
11:56 AM90 °FSunny.14 mph59%30.74 "Hg10 mi
10:56 AM90 °FPassing clouds.15 mph59%30.75 "Hg10 mi
9:56 AM88 °FScattered clouds.15 mph61%30.76 "Hg10 mi
9:27 AM88 °FPartly sunny.17 mph62%29.87 "Hg10 mi
8:56 AM86 °FPassing clouds.13 mph65%30.76 "Hg10 mi
7:56 AM84 °FPassing clouds.12 mph68%30.76 "Hg10 mi
6:56 AM80 °FSunny.12 mph77%30.74 "Hg10 mi
5:56 AM80 °FClear.9 mph77%30.74 "Hg10 mi
4:56 AM80 °FPassing clouds.10 mph74%30.73 "Hg10 mi
3:56 AM80 °FPassing clouds.10 mph77%30.73 "Hg10 mi
2:56 AM80 °FPassing clouds.12 mph77%30.75 "Hg10 mi
1:56 AM80 °FPassing clouds.12 mph74%30.76 "Hg10 mi
12:56 AM80 °FPassing clouds.10 mph72%30.78 "Hg10 mi
11:56 PM
Sep 30
80 °FClear.10 mph69%30.79 "Hg10 mi
10:56 PM80 °FClear.8 mph69%30.81 "Hg10 mi
9:56 PM80 °FClear.9 mph69%30.81 "Hg10 mi
Weather by CustomWeather, © 2014

See weather overviewHow to use our weather pages